"Date","subscriberCount","subscriberChange","viewCount","viewChange","videoCount","videoChange","commentCount","commentChange"
"2020-10-15 00:02:06","942000","0","185777662","0","96","0","0","0"
"2020-10-16 00:02:06","943000","1000","186796785","1019123","96","0","0","0"
"2020-10-17 00:02:06","944000","1000","187554930","758145","97","1","0","0"
"2020-10-18 00:02:06","945000","1000","188311699","756769","97","0","0","0"
"2020-10-19 00:02:06","946000","1000","188943797","632098","97","0","0","0"
"2020-10-20 00:02:07","947000","1000","189481205","537408","97","0","0","0"
"2020-10-21 00:02:06","950000","3000","190347883","866678","98","1","0","0"
"2020-10-22 00:02:05","952000","2000","192146935","1799052","98","0","0","0"
"2020-10-23 00:02:08","952000","0","193194200","1047265","98","0","0","0"
"2020-10-24 00:02:07","953000","1000","194152700","958500","99","1","0","0"
"2020-10-25 00:02:07","954000","1000","195000399","847699","99","0","0","0"
"2020-10-27 00:02:06","956000","2000","196448978","1448579","99","0","","0"
"2020-10-28 00:02:06","957000","1000","197015083","566105","99","0","0","0"
"2020-10-29 00:02:05","958000","1000","197616314","601231","99","0","0","0"
"2020-10-30 00:02:04","959000","1000","198219950","603636","99","0","0","0"
"2020-10-31 00:02:06","959000","0","198907812","687862","100","1","0","0"
"2020-11-01 00:02:05","960000","1000","199695279","787467","100","0","0","0"
"2020-11-02 00:02:04","961000","1000","200546709","851430","101","1","0","0"
"2020-11-03 00:02:05","962000","1000","201432468","885759","101","0","0","0"
"2020-11-04 00:02:05","963000","1000","202216240","783772","101","0","0","0"
"2020-11-05 00:02:07","963000","0","202723007","506767","101","0","","0"
"2020-11-06 00:02:06","964000","1000","203345059","622052","101","0","","0"
"2020-11-07 00:02:07","964000","0","204011620","666561","102","1","","0"
"2020-11-08 00:02:06","965000","1000","204874916","863296","102","0","","0"
"2020-11-09 00:02:08","966000","1000","205517986","643070","102","0","0","0"
"2020-11-10 00:02:06","967000","1000","206135835","617849","102","0","0","0"
"2020-11-11 00:02:06","967000","0","206703287","567452","102","0","0","0"
"2020-11-12 00:02:04","968000","1000","207265299","562012","102","0","","0"
"2020-11-13 00:02:04","969000","1000","207796754","531455","102","0","","0"
"2020-11-14 00:02:03","970000","1000","208632164","835410","103","1","","0"
"2020-11-15 00:02:03","971000","1000","209460935","828771","103","0","","0"
"2020-11-16 00:02:05","972000","1000","210150949","690014","103","0","","0"
"2020-11-17 00:02:03","973000","1000","210690590","539641","103","0","","0"
"2020-11-18 00:02:04","974000","1000","211219437","528847","103","0","","0"
"2020-11-19 00:02:03","975000","1000","211716061","496624","103","0","","0"
"2020-11-20 00:02:04","976000","1000","212179480","463419","103","0","","0"
"2020-11-21 00:02:03","977000","1000","212795832","616352","104","1","","0"
"2020-11-22 00:02:03","978000","1000","213569429","773597","104","0","","0"
"2020-11-23 00:02:04","979000","1000","214164582","595153","104","0","","0"
"2020-11-24 00:02:04","980000","1000","214756799","592217","104","0","","0"
"2020-11-25 00:02:03","981000","1000","215215815","459016","104","0","","0"
"2020-11-26 00:02:04","982000","1000","215690355","474540","104","0","","0"
"2020-11-27 00:02:04","983000","1000","216151574","461219","104","0","","0"
"2020-11-28 00:02:04","985000","2000","216843714","692140","105","1","","0"
"2020-11-29 00:02:03","987000","2000","217714770","871056","105","0","","0"
"2020-11-30 00:02:04","988000","1000","218458283","743513","105","0","","0"
"2020-12-01 00:02:04","990000","2000","218980323","522040","105","0","","0"
"2020-12-02 00:02:04","991000","1000","219456865","476542","105","0","","0"
"2020-12-03 00:02:04","992000","1000","219909546","452681","119","14","","0"
"2020-12-04 00:02:04","993000","1000","220500986","591440","119","0","","0"
"2020-12-05 00:02:08","994000","1000","221148024","647038","120","1","","0"
"2020-12-06 00:02:04","996000","2000","221864816","716792","120","0","","0"
"2020-12-07 00:02:04","1000000","4000","222441088","576272","121","1","","0"
"2020-12-08 00:02:04","1000000","0","224019085","1577997","121","0","","0"
"2020-12-09 00:02:04","1000000","0","225291528","1272443","122","1","","0"
"2020-12-10 00:02:05","1010000","10000","227718371","2426843","122","0","","0"
"2020-12-11 00:02:05","1010000","0","228611234","892863","122","0","","0"
"2020-12-12 00:02:06","1010000","0","229262108","650874","123","1","","0"
"2020-12-13 00:02:05","1010000","0","230412106","1149998","123","0","","0"
"2020-12-14 00:02:06","1010000","0","231165297","753191","123","0","","0"
"2020-12-15 00:02:07","1010000","0","231866290","700993","123","0","","0"
"2020-12-16 00:02:05","1010000","0","232478991","612701","123","0","","0"
"2020-12-17 00:02:06","1010000","0","233054529","575538","123","0","","0"
"2020-12-18 00:02:05","1010000","0","233695019","640490","123","0","","0"
"2020-12-19 00:02:06","1020000","10000","234221447","526428","124","1","","0"
"2020-12-20 00:02:05","1020000","0","235441401","1219954","124","0","","0"
"2020-12-21 00:02:06","1020000","0","236124067","682666","124","0","","0"
"2020-12-22 00:02:05","1020000","0","236637395","513328","124","0","","0"
"2020-12-23 00:02:04","1020000","0","237196025","558630","124","0","","0"
"2020-12-24 00:02:05","1020000","0","237789294","593269","124","0","","0"
"2020-12-25 00:02:05","1020000","0","238401285","611991","124","0","","0"
"2020-12-26 00:02:05","1020000","0","238892555","491270","125","1","","0"
"2020-12-27 00:02:04","1020000","0","239721546","828991","125","0","","0"
"2020-12-28 00:02:05","1020000","0","240321076","599530","125","0","","0"
"2020-12-29 00:02:05","1020000","0","240910453","589377","125","0","","0"
"2020-12-30 00:02:04","1020000","0","241491036","580583","125","0","","0"
"2020-12-31 00:02:04","1020000","0","242097100","606064","125","0","","0"
"2021-01-01 00:02:05","1030000","10000","242710262","613162","125","0","","0"
"2021-01-02 00:02:07","1030000","0","244074154","1363892","131","6","","0"
"2021-01-03 00:02:06","1030000","0","246134843","2060689","137","6","","0"
"2021-01-04 00:02:07","1030000","0","247410334","1275491","137","0","","0"
"2021-01-05 00:02:08","1030000","0","248237372","827038","137","0","","0"
"2021-01-06 00:02:06","1040000","10000","248984317","746945","137","0","","0"
"2021-01-07 00:02:03","1040000","0","249670507","686190","137","0","","0"
"2021-01-08 00:02:04","1040000","0","250644516","974009","138","1","","0"
"2021-01-09 00:02:03","1040000","0","252389867","1745351","139","1","","0"
"2021-01-10 00:02:04","1050000","10000","254250961","1861094","140","1","","0"
"2021-01-11 00:02:04","1050000","0","255938298","1687337","141","1","","0"
"2021-01-12 00:02:04","1050000","0","257906985","1968687","141","0","","0"
"2021-01-13 00:02:03","1050000","0","259130187","1223202","141","0","","0"
"2021-01-14 00:02:03","1060000","10000","260124363","994176","141","0","","0"
"2021-01-15 00:02:04","1060000","0","261047635","923272","141","0","","0"
"2021-01-16 00:02:04","1060000","0","261995795","948160","142","1","","0"
"2021-01-17 00:02:03","1060000","0","263167699","1171904","142","0","","0"
"2021-01-18 00:02:04","1060000","0","264162292","994593","142","0","","0"
"2021-01-19 00:02:03","1060000","0","264955267","792975","142","0","","0"
"2021-01-20 00:02:03","1070000","10000","265692795","737528","142","0","","0"
"2021-01-21 00:02:04","1070000","0","266418195","725400","142","0","","0"
"2021-01-22 00:02:03","1070000","0","267103826","685631","143","1","","0"
"2021-01-23 00:02:04","1070000","0","268224115","1120289","143","0","","0"
"2021-01-24 00:02:03","1070000","0","269933917","1709802","143","0","","0"
"2021-01-25 00:02:04","1070000","0","271189382","1255465","144","1","","0"
"2021-01-26 00:02:04","1080000","10000","272660177","1470795","144","0","","0"
"2021-01-27 00:02:04","1080000","0","273803288","1143111","144","0","","0"
"2021-01-28 00:02:03","1080000","0","274755680","952392","144","0","","0"
"2021-01-29 00:02:04","1080000","0","275618918","863238","144","0","","0"
"2021-01-30 00:02:03","1080000","0","276563178","944260","145","1","","0"
"2021-01-31 00:02:03","1080000","0","277758762","1195584","145","0","","0"
"2021-02-01 00:02:04","1080000","0","278695786","937024","145","0","","0"
"2021-02-02 00:02:03","1080000","0","279567841","872055","145","0","","0"
"2021-02-03 00:02:04","1090000","10000","280350404","782563","145","0","","0"
"2021-02-04 00:02:04","1090000","0","281098059","747655","145","0","","0"
"2021-02-05 00:02:04","1090000","0","281820717","722658","145","0","","0"
"2021-02-06 00:02:04","1090000","0","282646581","825864","146","1","","0"
"2021-02-07 00:02:03","1090000","0","283672989","1026408","146","0","","0"
"2021-02-08 00:02:04","1090000","0","284521324","848335","146","0","","0"
"2021-02-09 00:02:04","1090000","0","285177814","656490","146","0","","0"
"2021-02-10 00:02:04","1090000","0","285902339","724525","146","0","","0"
"2021-02-11 00:02:04","1090000","0","286520301","617962","146","0","","0"
"2021-02-12 00:02:03","1090000","0","287401671","881370","146","0","","0"
"2021-02-13 00:02:04","1100000","10000","288230555","828884","147","1","","0"
"2021-02-14 00:02:04","1100000","0","289242993","1012438","147","0","","0"
"2021-02-15 00:02:03","1100000","0","289890304","647311","147","0","","0"
"2021-02-16 00:02:04","1100000","0","290661783","771479","148","1","","0"
"2021-02-17 00:02:03","1100000","0","291707526","1045743","148","0","","0"
"2021-02-18 00:02:04","1100000","0","292538269","830743","148","0","","0"
"2021-02-19 00:02:03","1100000","0","293296605","758336","148","0","","0"
"2021-02-20 00:02:04","1110000","10000","294018884","722279","149","1","","0"
"2021-02-21 00:02:04","1110000","0","295349684","1330800","149","0","","0"
"2021-02-22 00:02:04","1110000","0","296314681","964997","149","0","","0"
"2021-02-23 00:02:03","1110000","0","297203045","888364","149","0","","0"
"2021-02-24 00:02:04","1110000","0","298088360","885315","149","0","","0"
"2021-02-25 00:02:03","1120000","10000","298809061","720701","149","0","","0"
"2021-02-26 00:02:04","1120000","0","299533626","724565","149","0","","0"
"2021-02-27 00:02:03","1120000","0","300295752","762126","150","1","","0"
"2021-02-28 00:02:04","1120000","0","301624821","1329069","149","-1","","0"
"2021-03-01 00:02:03","1120000","0","302566696","941875","150","1","","0"
"2021-03-02 00:02:04","1120000","0","303350498","783802","150","0","","0"
"2021-03-03 00:02:03","1130000","10000","304075161","724663","150","0","","0"
"2021-03-04 00:02:03","1130000","0","304846450","771289","150","0","","0"
"2021-03-05 00:02:03","1130000","0","305029493","183043","150","0","","0"
"2021-03-06 00:02:03","1130000","0","305746288","716795","151","1","","0"
"2021-03-07 00:02:04","1130000","0","306664007","917719","151","0","","0"
"2021-03-08 00:02:04","1130000","0","307646622","982615","151","0","","0"
"2021-03-09 00:02:03","1130000","0","308409816","763194","151","0","","0"
"2021-03-10 00:02:04","1130000","0","309078889","669073","151","0","","0"
"2021-03-11 00:02:03","1140000","10000","309687980","609091","151","0","","0"
"2021-03-12 00:02:04","1140000","0","310307578","619598","151","0","","0"
"2021-03-13 00:02:03","1140000","0","310934170","626592","152","1","","0"
"2021-03-14 00:02:04","1140000","0","311779102","844932","152","0","","0"
"2021-03-15 00:02:04","1140000","0","312628926","849824","152","0","","0"
"2021-03-16 00:02:03","1140000","0","313305496","676570","152","0","","0"
"2021-03-17 00:02:03","1140000","0","313860625","555129","152","0","","0"
"2021-03-18 00:02:03","1140000","0","314388998","528373","152","0","","0"
"2021-03-19 00:02:03","1140000","0","315007036","618038","152","0","","0"
"2021-03-20 00:02:03","1140000","0","315602688","595652","153","1","","0"
"2021-03-21 00:02:03","1150000","10000","316470972","868284","153","0","","0"
"2021-03-22 00:02:03","1150000","0","317253484","782512","153","0","","0"
"2021-03-23 00:02:04","1150000","0","317975239","721755","153","0","","0"
"2021-03-24 00:02:04","1150000","0","318552255","577016","153","0","","0"
"2021-03-25 00:02:03","1150000","0","319137404","585149","153","0","","0"
"2021-03-26 00:02:03","1150000","0","319722651","585247","153","0","","0"
"2021-03-27 00:02:03","1150000","0","320264404","541753","154","1","","0"
"2021-03-28 00:02:04","1150000","0","321203210","938806","154","0","","0"
"2021-03-29 00:02:04","1150000","0","322106111","902901","154","0","","0"
"2021-03-30 00:02:03","1160000","10000","322803392","697281","154","0","","0"
"2021-03-31 00:02:03","1160000","0","323459181","655789","154","0","","0"
"2021-04-01 00:02:04","1160000","0","324094161","634980","154","0","","0"
"2021-04-02 00:02:03","1160000","0","324737858","643697","154","0","","0"
"2021-04-03 00:02:03","1160000","0","325347675","609817","155","1","","0"
"2021-04-04 00:02:03","1160000","0","326193844","846169","155","0","","0"
"2021-04-05 00:02:04","1160000","0","327097350","903506","155","0","","0"
"2021-04-06 00:02:04","1160000","0","327669232","571882","155","0","","0"
"2021-04-07 00:02:04","1160000","0","328343568","674336","155","0","","0"
"2021-04-08 00:02:04","1160000","0","328913900","570332","155","0","","0"
"2021-04-09 00:02:04","1160000","0","329438973","525073","155","0","","0"
"2021-04-10 00:02:04","1170000","10000","329906902","467929","156","1","","0"
"2021-04-11 00:02:04","1170000","0","330675836","768934","156","0","","0"
"2021-04-12 00:02:04","1170000","0","331685411","1009575","156","0","","0"
"2021-04-13 00:02:04","1170000","0","332266704","581293","156","0","","0"
"2021-04-14 00:02:04","1170000","0","333010100","743396","156","0","","0"
"2021-04-15 00:02:04","1170000","0","333514887","504787","156","0","","0"
"2021-04-16 00:02:05","1170000","0","334075590","560703","156","0","","0"
"2021-04-17 00:02:04","1170000","0","334573180","497590","157","1","","0"
"2021-04-18 00:02:05","1170000","0","335343931","770751","157","0","","0"
"2021-04-19 00:02:05","1170000","0","336207872","863941","157","0","","0"
"2021-04-20 00:02:04","1180000","10000","336952711","744839","157","0","","0"
"2021-04-21 00:02:04","1180000","0","337508712","556001","157","0","","0"
"2021-04-22 00:02:04","1180000","0","338012345","503633","157","0","","0"
"2021-04-23 00:02:04","1180000","0","338518447","506102","157","0","","0"
"2021-04-24 00:02:04","1180000","0","339006489","488042","158","1","","0"
"2021-04-25 00:02:04","1180000","0","339715962","709473","158","0","","0"
"2021-04-26 00:02:05","1180000","0","340521916","805954","158","0","","0"
"2021-04-27 00:02:04","1180000","0","341066169","544253","158","0","","0"
"2021-04-28 00:02:04","1180000","0","341777912","711743","158","0","","0"
"2021-04-29 00:02:04","1180000","0","342291955","514043","158","0","","0"
"2021-04-30 00:02:04","1180000","0","342824656","532701","158","0","","0"
"2021-05-01 00:02:05","1190000","10000","343453108","628452","159","1","","0"
"2021-05-02 00:02:04","1190000","0","344958676","1505568","160","1","","0"
"2021-05-03 00:02:05","1190000","0","346248799","1290123","160","0","","0"
"2021-05-04 00:02:04","1190000","0","346818894","570095","160","0","","0"
"2021-05-05 00:02:04","1190000","0","347587445","768551","161","1","","0"
"2021-05-06 00:02:04","1190000","0","348442426","854981","161","0","","0"
"2021-05-07 00:02:05","1190000","0","349241947","799521","161","0","","0"
"2021-05-08 00:02:05","1190000","0","349715020","473073","162","1","","0"
"2021-05-09 00:02:03","1200000","10000","350482975","767955","162","0","","0"
"2021-05-10 00:02:05","1200000","0","351383217","900242","162","0","","0"
"2021-05-11 00:02:04","1200000","0","352101319","718102","162","0","","0"
"2021-05-12 00:02:05","1200000","0","352672306","570987","163","1","","0"
"2021-05-13 00:02:04","1200000","0","354090514","1418208","163","0","","0"
"2021-05-14 00:02:05","1210000","10000","356120161","2029647","163","0","","0"
"2021-05-15 00:02:05","1210000","0","357454779","1334618","164","1","","0"
"2021-05-16 00:02:05","1210000","0","359022686","1567907","164","0","","0"
"2021-05-17 00:02:04","1210000","0","360501744","1479058","164","0","","0"
"2021-05-18 00:02:05","1210000","0","361699262","1197518","164","0","","0"
"2021-05-19 00:02:04","1210000","0","362648269","949007","165","1","","0"
"2021-05-20 00:02:04","1220000","10000","364286499","1638230","165","0","","0"
"2021-05-21 00:02:05","1220000","0","365896198","1609699","165","0","","0"
"2021-05-22 00:02:05","1220000","0","367157176","1260978","166","1","","0"
"2021-05-23 00:02:05","1220000","0","368500208","1343032","166","0","","0"
"2021-05-24 00:02:05","1220000","0","369846187","1345979","166","0","","0"
"2021-05-25 00:02:05","1220000","0","370845031","998844","166","0","","0"
"2021-05-26 00:02:04","1220000","0","371966876","1121845","167","1","","0"
"2021-05-27 00:02:04","1220000","0","373173788","1206912","167","0","","0"
"2021-05-28 00:02:04","1220000","0","374249705","1075917","167","0","","0"
"2021-05-29 00:02:05","1230000","10000","375125455","875750","168","1","","0"
"2021-05-30 00:02:06","1230000","0","376251094","1125639","168","0","","0"
"2021-05-31 00:02:05","1230000","0","377510051","1258957","168","0","","0"
"2021-06-01 00:02:05","1230000","0","378249546","739495","169","1","","0"
"2021-06-02 00:02:04","1230000","0","379792678","1543132","169","0","","0"
"2021-06-03 00:02:04","1230000","0","380819223","1026545","169","0","","0"
"2021-06-04 00:02:04","1230000","0","381612949","793726","169","0","","0"
"2021-06-05 00:02:04","1230000","0","382334951","722002","170","1","","0"
"2021-06-06 00:02:04","1240000","10000","383249713","914762","170","0","","0"
"2021-06-07 00:02:04","1240000","0","384123664","873951","170","0","","0"
"2021-06-08 00:02:06","1240000","0","384858645","734981","170","0","","0"
"2021-06-09 00:02:03","1240000","0","385507212","648567","170","0","","0"
"2021-06-10 00:02:04","1240000","0","386167195","659983","170","0","","0"
"2021-06-11 00:02:04","1240000","0","386795023","627828","170","0","","0"
"2021-06-12 00:02:04","1240000","0","387465690","670667","171","1","","0"
"2021-06-13 00:02:04","1240000","0","388299168","833478","171","0","","0"
"2021-06-14 00:02:04","1240000","0","389251787","952619","170","-1","","0"
"2021-06-15 00:02:04","1240000","0","390050234","798447","170","0","","0"
"2021-06-16 00:02:04","1240000","0","390691490","641256","170","0","","0"
"2021-06-17 00:02:04","1240000","0","391321543","630053","171","1","","0"
"2021-06-18 00:02:04","1240000","0","391933983","612440","171","0","","0"
"2021-06-19 00:02:04","1240000","0","392508977","574994","172","1","","0"
"2021-06-20 00:02:04","1240000","0","393343269","834292","172","0","","0"
"2021-06-21 00:02:04","1240000","0","394227872","884603","172","0","","0"
"2021-06-22 00:02:04","1250000","10000","394929550","701678","172","0","","0"
"2021-06-23 00:02:04","1250000","0","395478425","548875","172","0","","0"
"2021-06-24 00:02:04","1250000","0","395996763","518338","172","0","","0"
"2021-06-25 00:02:04","1250000","0","396574831","578068","172","0","","0"
"2021-06-26 00:02:04","1250000","0","397182350","607519","173","1","","0"
"2021-06-27 00:02:05","1250000","0","397964819","782469","173","0","","0"
"2021-06-28 00:02:04","1250000","0","398857690","892871","173","0","","0"
"2021-06-29 00:02:04","1250000","0","399543693","686003","173","0","","0"
"2021-06-30 00:02:04","1250000","0","400107603","563910","173","0","","0"
"2021-07-01 00:02:05","1250000","0","400728004","620401","173","0","","0"
"2021-07-02 00:02:05","1250000","0","401266879","538875","173","0","","0"
"2021-07-03 00:02:06","1250000","0","401793360","526481","174","1","","0"
"2021-07-04 00:02:05","1250000","0","402555959","762599","174","0","","0"
"2021-07-05 00:02:05","1250000","0","403234949","678990","174","0","","0"
"2021-07-06 00:02:05","1250000","0","403551116","316167","174","0","","0"
"2021-07-07 00:02:04","1250000","0","404427103","875987","174","0","","0"
"2021-07-08 00:02:05","1250000","0","404943147","516044","176","2","","0"
"2021-07-09 00:02:06","1260000","10000","405724641","781494","176","0","","0"
"2021-07-10 00:02:05","1260000","0","407455346","1730705","177","1","","0"
"2021-07-11 00:02:03","1260000","0","409302165","1846819","177","0","","0"
"2021-07-12 00:02:03","1260000","0","410729781","1427616","177","0","","0"
"2021-07-13 00:02:03","1260000","0","411673996","944215","177","0","","0"
"2021-07-14 00:02:04","1260000","0","412778763","1104767","178","1","","0"
"2021-07-15 00:02:04","1260000","0","413646600","867837","178","0","","0"
"2021-07-16 00:02:04","1260000","0","415176155","1529555","178","0","","0"
"2021-07-17 00:02:03","1260000","0","416783301","1607146","179","1","","0"
"2021-07-18 00:02:03","1260000","0","418213472","1430171","179","0","","0"
"2021-07-19 00:02:04","1270000","10000","419541838","1328366","179","0","","0"
"2021-07-20 00:02:04","1270000","0","420726282","1184444","179","0","","0"
"2021-07-21 00:02:03","1270000","0","421730234","1003952","180","1","","0"
"2021-07-22 00:02:03","1270000","0","422974217","1243983","180","0","","0"
"2021-07-23 00:02:04","1270000","0","424168958","1194741","180","0","","0"
"2021-07-24 00:02:03","1270000","0","425203197","1034239","181","1","","0"
"2021-07-25 00:02:04","1270000","0","426312303","1109106","181","0","","0"
"2021-07-26 00:02:03","1270000","0","427378881","1066578","181","0","","0"
"2021-07-27 00:02:03","1270000","0","428150286","771405","181","0","","0"
"2021-07-28 00:02:04","1270000","0","428864513","714227","182","1","","0"
"2021-07-29 00:02:03","1270000","0","429878594","1014081","182","0","","0"
"2021-07-30 00:02:04","1270000","0","430785297","906703","182","0","","0"
"2021-07-31 00:02:04","1270000","0","431586792","801495","183","1","","0"
"2021-08-01 00:02:03","1270000","0","432730726","1143934","183","0","","0"
"2021-08-02 00:02:03","1270000","0","433839237","1108511","183","0","","0"
"2021-08-03 00:02:03","1270000","0","434739487","900250","183","0","","0"
"2021-08-04 00:02:03","1270000","0","435708771","969284","183","0","","0"
"2021-08-05 00:02:02","1280000","10000","436513677","804906","183","0","","0"
"2021-08-06 00:02:03","1280000","0","437317975","804298","183","0","","0"
"2021-08-07 00:02:03","1280000","0","437937395","619420","188","5","","0"
"2021-08-08 00:02:04","1280000","0","439394856","1457461","184","-4","","0"
"2021-08-09 00:02:03","1280000","0","440511223","1116367","188","4","","0"
"2021-08-10 00:02:04","1280000","0","441433782","922559","188","0","","0"
"2021-08-11 00:02:04","1280000","0","441433782","0","188","0","","0"
"2021-08-12 00:02:03","1280000","0","444071159","2637377","188","0","","0"
"2021-08-13 00:02:03","1280000","0","445503238","1432079","188","0","","0"
"2021-08-14 00:02:04","1280000","0","446951138","1447900","188","0","","0"
"2021-08-15 00:02:04","1280000","0","448491403","1540265","188","0","","0"
"2021-08-16 00:02:05","1280000","0","449879443","1388040","188","0","","0"
"2021-08-17 00:02:04","1280000","0","450749767","870324","188","0","","0"
"2021-08-18 00:02:03","1290000","10000","452113621","1363854","188","0","","0"
"2021-08-19 00:02:03","1290000","0","453080212","966591","188","0","","0"
"2021-08-20 00:02:03","1290000","0","454010053","929841","188","0","","0"
"2021-08-21 00:02:03","1290000","0","454940800","930747","189","1","","0"
"2021-08-22 00:02:08","1290000","0","456093779","1152979","189","0","","0"
"2021-08-23 00:02:03","1290000","0","457075356","981577","189","0","","0"
"2021-08-24 00:02:04","1290000","0","457894853","819497","189","0","","0"
"2021-08-25 00:02:03","1290000","0","458674457","779604","189","0","","0"
"2021-08-26 00:02:04","1290000","0","459321002","646545","189","0","","0"
"2021-08-27 00:02:03","1290000","0","460299553","978551","189","0","","0"
"2021-08-28 00:02:04","1290000","0","461124804","825251","191","2","","0"
"2021-08-29 00:02:03","1300000","10000","462316999","1192195","191","0","","0"